[[{"header":{"parameterUnit":"m.s-1","parameterCategory":1,"la1":30.2991,"la2":30.254,"lo1":-89.0895,"lo2":-89.0444,"dy":0.0017,"dx":0.0017,"nx":28,"ny":28,"refTime":"2026-02-11T09:00:00:Z","depth":0,"parameterNumber":2,"parameterNumberName":"U-component_of_WINDS"},"data":[0,0,0,0,0,0,0,0,0,0,0,0,0,0,0,0,0,0,0,0,0,0,0,0,0,0,0,0,0,0,0,0,0,0,0,0,0,0,0,0,0,0,0,0,0,0,0,0,0,0,0,0,0,0,0,0,0,0,-2.8299,-2.83,0,-2.8379,-2.838,-2.8381,-2.8371,-2.8369,-2.8368,-2.8367,-2.8446,-2.8449,-2.8452,0,0,0,0,0,0,0,0,0,0,0,0,0,-2.8138,-2.8141,-2.8299,-2.83,-2.8301,-2.8379,-2.838,-2.8381,-2.8371,-2.8369,-2.8368,-2.8366,-2.8445,-2.8448,-2.8452,0,0,0,0,0,0,0,0,0,0,0,0,0,-2.8211,-2.8142,-2.8299,-2.8306,-2.8307,-2.8378,-2.838,-2.8381,-2.8371,-2.8369,-2.8367,-2.8366,-2.8443,-2.8448,-2.8453,-2.8522,0,0,-2.8468,-2.847,0,0,0,0,0,0,0,0,-2.8207,-2.8217,-2.8304,-2.8306,-2.8307,-2.8363,-2.8351,-2.8428,-2.8372,-2.8347,-2.8367,-2.8365,-2.8419,-2.8426,-2.8445,-2.8525,-2.8529,-2.8468,-2.8471,-2.8474,-2.8475,0,0,0,0,0,0,0,-2.8202,-2.8214,-2.8331,-2.8305,-2.8307,-2.8304,-2.8313,-2.8366,-2.8393,-2.8349,-2.8348,-2.8358,-2.842,-2.8441,-2.8447,-2.853,-2.8468,-2.8473,-2.8476,-2.8478,-2.8672,-2.8674,0,0,0,0,0,0,-2.8196,-2.821,-2.8328,-2.8333,-2.8252,-2.8309,-2.8318,-2.8347,-2.8392,-2.8397,-2.836,-2.8357,-2.8433,-2.8441,-2.845,-2.8535,-2.8473,-2.8478,-2.8481,-2.867,-2.8673,-2.8675,0,0,0,0,0,0,-2.8192,-2.8206,-2.8325,-2.8271,-2.8286,-2.8314,-2.8346,-2.835,-2.837,-2.84,-2.8405,-2.8376,-2.8432,-2.8443,-2.8504,-2.8537,-2.848,-2.8485,-2.8667,-2.8671,-2.8674,-2.8705,0,0,0,0,0,0,-2.8188,-2.8205,-2.8232,-2.8272,-2.8289,-2.8379,-2.8348,-2.8352,-2.8379,-2.8377,-2.8417,-2.8422,-2.8431,-2.8497,-2.8509,-2.8543,-2.8489,-2.8664,-2.8669,-2.8673,-2.8701,-2.8709,-2.8715,0,0,0,0,0,-2.8182,-2.8237,-2.8233,-2.8248,-2.8323,-2.8381,-2.8391,-2.8401,-2.8382,-2.8409,-2.8428,-2.842,-2.8532,-2.8504,-2.8517,-2.8553,-2.8662,-2.8668,-2.8672,-2.8698,-2.8707,-2.8715,0,0,0,0,0,0,-2.8198,-2.8242,-2.8239,-2.8308,-2.8341,-2.8379,-2.8414,-2.8411,-2.8449,-2.8445,-2.8456,-2.8465,-2.8528,-2.8546,-2.8514,-2.8623,-2.8594,-2.8602,-2.8609,-2.8618,-2.8625,-2.862,-2.8493,0,0,0,0,0,-2.821,-2.8254,-2.8289,-2.8347,-2.8364,-2.8386,-2.8411,-2.8417,-2.8451,-2.8465,-2.8489,-2.8522,-2.8564,-2.8592,-2.8632,-2.8703,-2.8712,-2.8734,-2.8741,-2.8747,-2.8754,-2.8795,-2.8805,-2.8691,-2.8691,-2.8691,0,0,-2.8235,-2.8264,-2.8291,-2.8351,-2.8377,-2.8423,-2.8398,-2.8446,-2.8479,-2.8472,-2.8532,-2.8551,-2.8588,-2.8655,-2.8686,-2.8672,-2.8788,-2.8754,-2.8758,-2.8762,-2.8801,-2.8812,-2.8821,-2.8695,-2.8694,-2.8694,0,0,-2.8303,-2.8329,-2.8382,-2.8409,-2.8449,-2.8463,-2.8476,-2.8515,-2.8528,-2.8589,-2.8584,-2.8623,-2.8696,-2.8723,-2.8747,-2.8827,-2.8821,-2.8839,-2.8877,-2.8917,-2.8926,-2.8934,-2.8964,-2.8974,-2.8846,-2.8846,-2.8846,0,-2.8329,-2.8397,-2.8408,-2.8458,-2.8485,-2.8481,-2.8534,-2.8559,-2.861,-2.8629,-2.8613,-2.8705,-2.873,-2.8804,-2.8824,-2.8842,-2.8857,-2.8835,-2.8924,-2.8932,-2.8939,-2.8968,-2.8979,-2.8848,-2.8848,-2.8848,-2.8848,0,-2.8428,-2.8475,-2.8512,-2.8563,-2.8594,-2.8645,-2.8663,-2.8693,-2.8696,-2.8712,-2.8775,-2.8804,-2.8852,-2.8869,-2.8871,-2.8944,-2.8935,-2.8921,-2.8893,-2.8952,-2.8979,-2.899,-2.8851,-2.885,-2.885,-2.8849,0,0,-2.8509,-2.8567,-2.858,-2.8604,-2.8649,-2.8685,-2.8736,-2.8783,-2.8809,-2.8844,-2.8888,-2.895,-2.8938,-2.8965,-2.897,-2.9004,-2.9068,-2.8987,-2.8988,-2.9002,-2.9151,-2.9162,-2.9174,-2.9064,-2.9066,-2.9067,-2.9148,0,-2.8583,-2.8675,-2.8686,-2.8767,-2.8811,-2.8809,-2.8853,-2.8885,-2.8901,-2.8941,-2.8958,-2.9003,-2.8983,-2.8999,-2.9033,-2.9053,-2.9098,-2.9047,-2.9104,-2.9106,-2.9097,-2.9188,-2.92,-2.9275,-2.9159,-2.916,-2.9162,0,-2.8682,-2.8722,-2.8808,-2.8848,-2.8867,-2.8907,-2.8952,-2.899,-2.9026,-2.9035,-2.9066,-2.9067,-2.9119,-2.9088,-2.9161,-2.9126,-2.915,-2.9163,-2.9167,-2.9174,-2.9139,-2.9199,-2.9299,-2.9311,-2.9178,-2.9177,-2.9176,0,-2.8736,-2.881,-2.8872,-2.8892,-2.894,-2.8968,-2.8989,-2.9023,-2.9051,-2.909,-2.9109,-2.9152,-2.9177,-2.9211,-2.9224,-2.92,-2.9296,-2.9266,-2.9306,-2.9306,-2.9328,-2.9327,-2.9434,-2.9341,-2.934,-2.934,-2.934,0,-2.8818,-2.8871,-2.8897,-2.8935,-2.8994,-2.9006,-2.9064,-2.9084,-2.9115,-2.9156,-2.9155,-2.9194,-2.9209,-2.925,-2.926,-2.9319,-2.933,-2.9339,-2.9342,-2.934,-2.9339,-2.9357,-2.9353,-2.9343,-2.9343,-2.9342,-2.9341,0,-2.8888,-2.8907,-2.8974,-2.9014,-2.9026,-2.9068,-2.9102,-2.9138,-2.9154,-2.9207,-2.922,-2.9245,-2.9293,-2.931,-2.9367,-2.9375,-2.9444,-2.9441,-2.9433,-2.9434,-2.9473,-2.947,-2.9598,-2.9616,-2.9509,-2.951,-2.951,0,-2.8941,-2.8982,-2.9027,-2.9055,-2.9077,-2.9123,-2.9152,-2.9165,-2.9196,-2.9241,-2.9272,-2.932,-2.936,-2.9437,-2.946,-2.9505,-2.9504,-2.9546,-2.9511,-2.9509,-2.9507,-2.9505,-2.951,-2.9553,-2.9554,-2.9555,-2.9555,0,-2.9032,-2.904,-2.9083,-2.9129,-2.9165,-2.9202,-2.9237,-2.926,-2.9279,-2.9313,-2.9363,-2.9394,-2.9454,-2.9503,-2.9548,-2.9569,-2.9566,-2.9566,-2.9578,-2.9578,-2.9572,-2.9578,-2.9452,-2.9564,-2.9563,-2.9562,-2.9562,-2.9561,-2.9096,-2.9133,-2.9171,-2.9219,-2.9248,-2.9281,-2.9318,-2.9339,-2.9382,-2.9433,-2.9438,-2.9492,-2.9528,-2.9589,-2.9612,-2.9655,-2.9643,-2.966,-2.9665,-2.9669,-2.9673,-2.9564,-2.9663,-2.9663,-2.9663,-2.9662,-2.9662,0,-2.9189,-2.9214,-2.9258,-2.9309,-2.9347,-2.9341,-2.938,-2.9412,-2.946,-2.9494,-2.9534,-2.9592,-2.9639,-2.9666,-2.9713,-2.9742,-2.9741,-2.9754,-2.9752,-2.9758,-2.968,-2.9666,-2.9753,-2.9753,-2.9753,-2.9753,-2.9753,-2.9753,-2.9243,-2.9305,-2.9318,-2.9394,-2.9418,-2.9473,-2.9496,-2.9527,-2.9554,-2.962,-2.9659,-2.9677,-2.9708,-2.9758,-2.9801,-2.9807,-2.9825,-2.9839,-2.9845,-2.9772,-2.9763,-2.9754,-2.9741,-2.9842,-2.9842,-2.9919,-2.9919,-2.992]},{"header":{"parameterUnit":"m.s-1","parameterCategory":1,"la1":30.2991,"la2":30.254,"lo1":-89.0895,"lo2":-89.0444,"dy":0.0017,"dx":0.0017,"nx":28,"ny":28,"refTime":"2026-02-11T09:00:00:Z","depth":0,"parameterNumber":3,"parameterNumberName":"V-component_of_WINDS"},"data":[0,0,0,0,0,0,0,0,0,0,0,0,0,0,0,0,0,0,0,0,0,0,0,0,0,0,0,0,0,0,0,0,0,0,0,0,0,0,0,0,0,0,0,0,0,0,0,0,0,0,0,0,0,0,0,0,0,0,-3.099,-3.099,0,-3.1021,-3.1021,-3.1022,-3.099,-3.0989,-3.0987,-3.0986,-3.1016,-3.1018,-3.102,0,0,0,0,0,0,0,0,0,0,0,0,0,-3.0902,-3.0903,-3.099,-3.099,-3.0991,-3.1021,-3.1021,-3.1022,-3.099,-3.0989,-3.0987,-3.0986,-3.1016,-3.1018,-3.102,0,0,0,0,0,0,0,0,0,0,0,0,0,-3.0937,-3.0904,-3.099,-3.0979,-3.0978,-3.1021,-3.1021,-3.1022,-3.099,-3.0989,-3.0987,-3.0985,-3.1015,-3.1018,-3.1021,-3.1075,0,0,-3.1029,-3.1031,0,0,0,0,0,0,0,0,-3.0935,-3.094,-3.098,-3.0979,-3.0979,-3.1,-3.1001,-3.104,-3.0991,-3.0986,-3.0986,-3.0984,-3.1012,-3.1015,-3.1025,-3.1077,-3.1078,-3.103,-3.1031,-3.1033,-3.1034,0,0,0,0,0,0,0,-3.0933,-3.0939,-3.1002,-3.098,-3.098,-3.0971,-3.0974,-3.1008,-3.1009,-3.0986,-3.0984,-3.0988,-3.1011,-3.1022,-3.1025,-3.1078,-3.103,-3.1032,-3.1034,-3.1035,-3.1177,-3.1179,0,0,0,0,0,0,-3.0932,-3.0937,-3.1001,-3.1003,-3.0952,-3.0975,-3.0978,-3.0995,-3.1008,-3.1009,-3.0989,-3.0986,-3.1018,-3.1022,-3.1026,-3.1092,-3.1033,-3.1035,-3.1037,-3.1175,-3.1178,-3.118,0,0,0,0,0,0,-3.093,-3.0938,-3.1,-3.0969,-3.0977,-3.0978,-3.0997,-3.0996,-3.1007,-3.1011,-3.1011,-3.1001,-3.1017,-3.1022,-3.1064,-3.1093,-3.1037,-3.1039,-3.1173,-3.1176,-3.1179,-3.1224,0,0,0,0,0,0,-3.0927,-3.0937,-3.0959,-3.097,-3.0978,-3.1037,-3.0999,-3.0998,-3.1012,-3.1009,-3.1021,-3.1022,-3.1016,-3.106,-3.1067,-3.1096,-3.1042,-3.117,-3.1174,-3.1178,-3.122,-3.1228,-3.1235,0,0,0,0,0,-3.0924,-3.0969,-3.096,-3.0968,-3.1005,-3.1039,-3.1044,-3.1037,-3.1015,-3.1036,-3.1039,-3.1021,-3.1088,-3.1064,-3.1072,-3.1102,-3.1169,-3.1173,-3.1178,-3.1217,-3.1227,-3.1235,0,0,0,0,0,0,-3.096,-3.0971,-3.096,-3.101,-3.1024,-3.1034,-3.106,-3.1047,-3.1067,-3.1063,-3.1052,-3.1056,-3.11,-3.1105,-3.1078,-3.1156,-3.1125,-3.1131,-3.1152,-3.1161,-3.1169,-3.1167,-3.1044,0,0,0,0,0,-3.0974,-3.1002,-3.1009,-3.1052,-3.106,-3.1059,-3.1074,-3.1067,-3.1081,-3.1086,-3.1092,-3.1105,-3.1129,-3.1145,-3.1168,-3.122,-3.1223,-3.1245,-3.1253,-3.1259,-3.1265,-3.1294,-3.1304,-3.1195,-3.1195,-3.1195,0,0,-3.1003,-3.1012,-3.103,-3.106,-3.107,-3.1098,-3.1064,-3.1095,-3.1116,-3.1091,-3.1131,-3.1135,-3.1149,-3.1197,-3.1218,-3.1203,-3.1295,-3.1265,-3.127,-3.1272,-3.13,-3.131,-3.1319,-3.1198,-3.1198,-3.1197,0,0,-3.107,-3.108,-3.1118,-3.1128,-3.1144,-3.1143,-3.1152,-3.1164,-3.1166,-3.1206,-3.1188,-3.1212,-3.1254,-3.1265,-3.1276,-3.1348,-3.1333,-3.1355,-3.1396,-3.1424,-3.1433,-3.144,-3.1467,-3.1477,-3.1361,-3.1361,-3.1361,0,-3.1104,-3.1147,-3.1138,-3.1171,-3.1185,-3.1164,-3.1202,-3.1213,-3.1235,-3.1245,-3.1227,-3.1279,-3.1287,-3.1337,-3.1355,-3.1364,-3.1375,-3.1354,-3.1432,-3.144,-3.1447,-3.1472,-3.1482,-3.1364,-3.1363,-3.1363,-3.1363,0,-3.1188,-3.1218,-3.1246,-3.1269,-3.1286,-3.1321,-3.1318,-3.1336,-3.1328,-3.1329,-3.137,-3.1378,-3.1403,-3.1414,-3.1406,-3.1463,-3.1453,-3.1434,-3.1402,-3.146,-3.1484,-3.1493,-3.1368,-3.1367,-3.1366,-3.1365,0,0,-3.1279,-3.1298,-3.1308,-3.1319,-3.1335,-3.1357,-3.1391,-3.1416,-3.1432,-3.1447,-3.1476,-3.1512,-3.1494,-3.1507,-3.15,-3.1525,-3.1582,-3.1502,-3.1502,-3.1518,-3.1647,-3.1662,-3.1674,-3.1572,-3.1573,-3.1575,-3.1646,0,-3.1348,-3.1409,-3.1402,-3.146,-3.1488,-3.1468,-3.1497,-3.151,-3.1512,-3.1535,-3.1536,-3.1562,-3.1537,-3.1544,-3.1568,-3.157,-3.1608,-3.1565,-3.1599,-3.16,-3.1597,-3.1686,-3.1702,-3.1769,-3.1655,-3.1657,-3.1658,0,-3.1437,-3.1457,-3.1518,-3.153,-3.1541,-3.1568,-3.1591,-3.1613,-3.1627,-3.1626,-3.1641,-3.1629,-3.1663,-3.163,-3.1677,-3.1647,-3.166,-3.1664,-3.1666,-3.167,-3.1633,-3.1693,-3.179,-3.1801,-3.1672,-3.1671,-3.167,0,-3.1499,-3.1541,-3.1583,-3.1592,-3.1607,-3.1627,-3.1634,-3.1646,-3.1662,-3.168,-3.169,-3.1712,-3.1725,-3.1742,-3.1737,-3.1713,-3.1785,-3.1751,-3.1786,-3.1786,-3.1803,-3.1802,-3.1905,-3.1809,-3.1809,-3.1809,-3.1809,0,-3.1577,-3.1615,-3.1611,-3.1637,-3.168,-3.1671,-3.1713,-3.1717,-3.1728,-3.1754,-3.1738,-3.1762,-3.1753,-3.1777,-3.1773,-3.1813,-3.1818,-3.1819,-3.1818,-3.1821,-3.1821,-3.1831,-3.1826,-3.1812,-3.1811,-3.1811,-3.181,0,-3.1655,-3.1653,-3.1698,-3.1709,-3.1713,-3.1743,-3.1752,-3.1776,-3.1777,-3.181,-3.1817,-3.1817,-3.1845,-3.1841,-3.1871,-3.1868,-3.1919,-3.1911,-3.1914,-3.1913,-3.1948,-3.1946,-3.2062,-3.2077,-3.197,-3.1971,-3.1972,0,-3.1705,-3.1735,-3.1749,-3.1766,-3.1775,-3.1802,-3.1817,-3.181,-3.1827,-3.1845,-3.1867,-3.1893,-3.1914,-3.1959,-3.1961,-3.1984,-3.1978,-3.2017,-3.1981,-3.1984,-3.198,-3.1979,-3.1982,-3.2024,-3.2025,-3.2026,-3.2027,0,-3.1796,-3.1794,-3.1818,-3.1842,-3.1862,-3.188,-3.1896,-3.191,-3.1904,-3.1924,-3.1953,-3.1969,-3.2,-3.2027,-3.2048,-3.2055,-3.2041,-3.2038,-3.2048,-3.2053,-3.2054,-3.2055,-3.1935,-3.2036,-3.2035,-3.2034,-3.2034,-3.2034,-3.1862,-3.1888,-3.1902,-3.193,-3.1941,-3.1957,-3.1981,-3.1984,-3.2008,-3.2034,-3.2027,-3.206,-3.2073,-3.2101,-3.2109,-3.2134,-3.212,-3.2133,-3.2137,-3.2141,-3.2146,-3.2049,-3.2138,-3.2138,-3.2137,-3.2137,-3.2137,0,-3.1953,-3.1962,-3.1987,-3.2011,-3.2033,-3.2017,-3.2035,-3.2054,-3.2083,-3.2096,-3.2117,-3.215,-3.2175,-3.218,-3.2204,-3.2223,-3.2217,-3.223,-3.2229,-3.2231,-3.2156,-3.2147,-3.2234,-3.2234,-3.2234,-3.2234,-3.2234,-3.2234,-3.2003,-3.2046,-3.2046,-3.2094,-3.2101,-3.2134,-3.2145,-3.216,-3.2171,-3.2209,-3.223,-3.2233,-3.2243,-3.2268,-3.229,-3.2291,-3.2301,-3.2317,-3.2315,-3.2246,-3.2236,-3.2227,-3.2217,-3.2319,-3.2319,-3.2387,-3.2388,-3.2388]}]]